Miscellaneous Local Product
Issued by NWS Hastings, NE

Home | Current Version | Previous Version | Graphics & Text | Print | Product List | Glossary On
Versions: 1 2 3 4 5 6 7 8 9 10 11 12 13 14 15 16 17 18 19 20 21 22 23 24 25 26 27 28 29 30 31 32 33 34 35 36 37 38 39 40 41 42 43 44 45 46 47 48 49 50
000
AXUS43 KGID 161602
MISGRI

GID CWA HOURLY WEATHER ROUNDUP
NATIONAL WEATHER SERVICE HASTINGS NE
1100 AM CDT WED APR 16 2014

NOTE: "FAIR" INDICATES FEW OR NO CLOUDS BELOW 12,000 FEET WITH NO
SIGNIFICANT WEATHER AND/OR OBSTRUCTIONS TO VISIBILITY.

...SOUTH CENTRAL NEBRASKA...

CITY           SKY/WX    TMP DP  RH WIND       PRES   REMARKS
GRAND ISLAND   CLOUDY    53  25  33 SW16      29.66R
HASTINGS       CLOUDY    53  23  31 SW13G18   29.67R
KEARNEY        PTSUNNY   54  37  54 NW23G31   29.69R
ORD            MOSUNNY   51  32  48 NW24G32   29.66R
YORK           CLOUDY    54  25  32 S23G30    29.66F
AURORA         CLOUDY    53  25  34 SW23      29.66R
LEXINGTON      CLOUDY    54  40  59 NW26G36   29.72R
HOLDREGE       PTSUNNY   54  40  59 NW23G32   29.69S
HEBRON         PTSUNNY   57  22  25 SW26G35   29.70R

...NEBRASKA PANHANDLE...

CITY           SKY/WX    TMP DP  RH WIND       PRES   REMARKS
CHADRON        LGT RAIN  39  36  89 NW13G23   29.89R FOG     WCI  31
ALLIANCE       CLOUDY    40  34  79 NW30G39   29.84R WCI  28
SCOTTSBLUFF    PTSUNNY   46  30  53 NW26G32   29.90R
SIDNEY         PTSUNNY   46  30  53 NW30G43   29.88R

...WESTERN AND NORTH CENTRAL NEBRASKA...

CITY           SKY/WX    TMP DP  RH WIND       PRES   REMARKS
VALENTINE      CLOUDY    34  30  85 NW15G29   29.79R FOG     WCI  24
AINSWORTH      CLOUDY    36  31  85 NW23G30   29.76R WCI  24
ONEILL         PTSUNNY   47  32  55 NW25G32   29.66R
BROKEN BOW     CLOUDY    47  36  65 NW25G35   29.71R
IMPERIAL       MOSUNNY   52  34  50 NW31G40   29.80R
NORTH PLATTE   MOSUNNY   51  35  54 N26G40    29.76R
MCCOOK         MOSUNNY   56  38  50 NW24G39   29.77R

...EASTERN NEBRASKA...

CITY           SKY/WX    TMP DP  RH WIND       PRES   REMARKS
NORFOLK        CLOUDY    50  26  39 S21       29.63R
SO SIOUX CITY  CLOUDY    52  29  41 S22G28    29.68R
TEKAMAH        CLOUDY    54  28  36 S29G36    29.69F
COLUMBUS       CLOUDY    52  25  35 SW22G28   29.67S
ALBION         CLOUDY    50  26  39 SW13      29.64R
OMAHA EPPLEY   CLOUDY    55  27  34 S29G37    29.73F
OFFUTT AFB     CLOUDY    55  28  35 S26G43    29.74F
MILLARD        CLOUDY    53  28  38 S17G26    29.73S
LINCOLN        CLOUDY    56  25  30 S29G41    29.70S
NEBRASKA CITY  CLOUDY    55  28  34 S29G41    29.77S
BEATRICE       CLOUDY    58  25  28 S32       29.73R
FALLS CITY     CLOUDY    56  29  35 S25G41    29.81F

...NORTHERN KANSAS...

CITY           SKY/WX    TMP DP  RH WIND       PRES   REMARKS
GOODLAND       MOSUNNY   53  31  42 N35G48    29.82R
HILL CITY      MOSUNNY   60  37  42 NW24G36   29.76R
PHILLIPSBURG   SUNNY     61  37  41 NW23G31   29.72R
SMITH CENTER   SUNNY     57  28  33 W16G22    29.70S
BELOIT         SUNNY     61  23  23 S25G32    29.72R
HAYS           SUNNY     63  34  34 NW18      29.75R
RUSSELL        SUNNY     60  23  24 SW17G24   29.73R
CONCORDIA      MOSUNNY   59  24  26 S28G41    29.73S
SALINA         MOSUNNY   60  26  27 S31G44    29.78R
TOPEKA         PTSUNNY   57  29  34 S24G32    29.90S



USA.gov is the U.S. government's official web portal to all federal, state and local government web resources and services.